TimeAST,TemperatureF,Dew PointF,Humidity,Sea Level PressureIn,VisibilityMPH,Wind Direction,Wind SpeedMPH,Gust SpeedMPH,PrecipitationIn,Events,Conditions,WindDirDegrees,DateUTC
12:00 AM,78.8,73.4,83,29.89,6.2,Calm,Calm,-,N/A,,Scattered Clouds,0,2012-11-02 04:00:00
1:00 AM,78.8,75.2,89,29.86,6.2,Calm,Calm,-,N/A,,Scattered Clouds,0,2012-11-02 05:00:00
2:00 AM,78,74,84,29.86,14,Calm,Calm,,,,Widespread Dust,,2012-11-02 06:00:00
2:00 AM,78.8,73.4,83,29.83,6.2,Calm,Calm,-,N/A,,Scattered Clouds,0,2012-11-02 06:00:00
3:00 AM,77.0,73.4,89,29.83,6.2,Calm,Calm,-,N/A,,Scattered Clouds,0,2012-11-02 07:00:00
4:00 AM,77.0,73.4,89,29.83,6.2,Calm,Calm,-,N/A,,Partly Cloudy,0,2012-11-02 08:00:00
5:00 AM,76,74,90,29.86,14,Calm,Calm,,,,Widespread Dust,,2012-11-02 09:00:00
5:00 AM,77.0,73.4,89,29.86,6.2,Calm,Calm,-,N/A,,Partly Cloudy,0,2012-11-02 09:00:00
6:00 AM,77.0,73.4,89,29.86,6.2,Calm,Calm,-,N/A,,Scattered Clouds,0,2012-11-02 10:00:00
7:00 AM,80.6,75.2,84,29.89,6.2,Calm,Calm,-,N/A,,Partly Cloudy,0,2012-11-02 11:00:00
8:00 AM,86,76,67,29.90,12,East,5.8,,,,Widespread Dust,100,2012-11-02 12:00:00
8:00 AM,86.0,77.0,74,29.89,6.2,East,5.8,-,N/A,,Partly Cloudy,100,2012-11-02 12:00:00
9:00 AM,86.0,75.2,70,29.92,6.2,ESE,3.5,-,N/A,,Scattered Clouds,120,2012-11-02 13:00:00
10:00 AM,87.8,75.2,66,29.92,6.2,East,9.2,-,N/A,,Mostly Cloudy,90,2012-11-02 14:00:00
11:00 AM,87,74,59,29.92,11,Calm,Calm,,,,Mostly Cloudy,,2012-11-02 15:00:00
11:00 AM,87.8,75.2,66,29.92,6.2,Calm,Calm,-,N/A,,Mostly Cloudy,0,2012-11-02 15:00:00
12:00 PM,87.8,75.2,66,29.89,6.2,Variable,2.3,-,N/A,,Mostly Cloudy,0,2012-11-02 16:00:00
1:00 PM,86.0,77.0,74,29.86,6.2,Calm,Calm,-,N/A,,Mostly Cloudy,0,2012-11-02 17:00:00
2:00 PM,87,74,57,29.86,14,,2.3,,,,,,2012-11-02 18:00:00
2:00 PM,87.8,73.4,62,29.86,6.2,Variable,2.3,-,N/A,,Scattered Clouds,0,2012-11-02 18:00:00
3:00 PM,87.8,75.2,66,29.83,6.2,ESE,13.8,-,N/A,,Mostly Cloudy,120,2012-11-02 19:00:00
4:00 PM,86.0,73.4,66,29.83,6.2,ESE,10.4,-,N/A,,Mostly Cloudy,110,2012-11-02 20:00:00
5:00 PM,84,74,65,29.86,12,East,6.9,,,,Widespread Dust,100,2012-11-02 21:00:00
5:00 PM,84.2,73.4,70,29.86,6.2,East,6.9,-,N/A,,Mostly Cloudy,100,2012-11-02 21:00:00
6:00 PM,82.4,75.2,79,29.86,6.2,East,5.8,-,N/A,,Scattered Clouds,80,2012-11-02 22:00:00
7:00 PM,80.6,73.4,79,29.86,6.2,Variable,2.3,-,N/A,,Mostly Cloudy,0,2012-11-02 23:00:00
8:00 PM,80,74,77,29.88,12,,2.3,,,,Widespread Dust,,2012-11-03 00:00:00
8:00 PM,80.6,73.4,79,29.89,6.2,Variable,2.3,-,N/A,,Scattered Clouds,0,2012-11-03 00:00:00
9:00 PM,78.8,75.2,89,29.89,6.2,Calm,Calm,-,N/A,,Partly Cloudy,0,2012-11-03 01:00:00
10:00 PM,78.8,73.4,83,29.89,6.2,Variable,2.3,-,N/A,,Mostly Cloudy,0,2012-11-03 02:00:00
11:00 PM,78,75,87,29.91,10,Calm,Calm,,,,Widespread Dust,,2012-11-03 03:00:00
11:00 PM,78.8,75.2,89,29.92,6.2,Calm,Calm,-,N/A,,Mostly Cloudy,0,2012-11-03 03:00:00